User: anonymous   Login
Location: Unspecified
(40.7945°N, 111.1337°W)
Time: 04:31:02
(UTC-06:00)
Language:

A-11 Canister half - Orbit

View from above orbital plane
View from above orbital plane
View from above satellite
View from above satellite

Ground track
Ground track

The orbit data is extracted from the following two-line orbital elements,

1    51U 60009C   19166.82529373 -.00000065 +00000-0 +19482-3 0  9992
2    51 047.2146 044.7662 0105165 149.1761 211.5256 12.18271721619277
Epoch (UTC): 15 June 2019 19:48:25
Eccentricity: 0.0105165
inclination: 47.2146°
perigee height: 1516 km
apogee height: 1684 km
right ascension of ascending node: 44.7662°
argument of perigee: 149.1761°
revolutions per day: 12.18271721
mean anomaly at epoch: 211.5256°
orbit number at epoch: 61927

The dashed part of the orbit path shows where the satellite is in the earth's shadow,  

DLR